OBJECT C, 54253

Orbit data source: Space-Track

You're viewing an Uncataloged Satellite

Recently launched and/or uncataloged satellites may have evolving metadata. Metadata may include but not limited to: Owner, Maufacturer, Bus, Motor, and Mission.

OBJECT C, 54253 is a Chinese satellite in SSO that was launched on Wed, 16 Nov 2022 UTC via a GUSHENXING 1 launch vehicle from the Jiuquan Satellite Launch Center, China (JSC). Unknown objects in Earth's orbit typically refer to objects detected orbiting the Earth but have not yet been identified or cataloged. These objects could be anything from previously untracked satellites, spent rocket stages, debris from satellite collisions, or even natural meteoroids temporarily captured by Earth's gravity.

Loading next visibility...
Identifier
54253, 2022-155C
Orbit
SSO
Country
Flag of CNCN / PRC
Related business
None
Manufacturer
Unknown
Mission
Operational Commercial Imaging
Bus & Motor
Unknown
Mass
Unknown
Launch date (UTC)
2022-11-16 (4 years ago)
Launch vehicle
GUSHENXING 1
Launch site
Jiuquan Satellite Launch Center, China (JSC)
Object type
Unknown
Shape & HBR
Box + 2 Pan, 0.8 m
Radar Cross Section
2.000 m², Medium (>0.1 m² and < 1m²)

Expand to show TLE details & history
Last TLE update: 22 hours ago

TLE from 22 hours ago
0 OBJECT C
1 54253U 22155C   26172.53629914  .00027254  00000-0  43805-3 0  9994
2 54253  97.6222 313.2659 0004720 355.0570   5.0635 15.52978243200160
Epoch: 2026-06-21T12:52Z
TLE epoch observation values (Epoch: 2026-06-21T12:52:16.245Z)
Latitude
-0.00003°
Longitude
-149.53694°
Altitude
407.973 km
Speed
7.668 km/s
True Right ascension
20h 53m 03s
True Declination
0° 00' 00"
Sunlit
Object was in full shadow at epoch
Visualization orbit readout
Latitude
Unknown
Longitude
Unknown
Altitude
Unknown
Speed
Unknown
Apparent Right ascension
Unknown
Apparent Declination
Unknown
Sunlit
N/A
Visualization observer readout
Local Sidereal Time
21:28:37
Azimuth
Unknown
Elevation
Unknown
Doppler factor
Unknown
Orbital elements
Apogee altitude
408.169 km
Perigee altitude
401.766 km
Semi-major axis
6,783.105 km
Eccentricity
0.00047
Inclination
97.6222°
RAAN
313.2659°
Arg. of periapsis
355.057°
True anomaly
5.06828°
Mean anomaly
5.0635°
Eccentric anomaly
5.06589°
Mean motion
3.88508 °/min
Orbital period
92.66 mins
BSTAR
0.00043805
Loading maneuver chart data...
Computing Atmospheric mass density...
Loading historical data...
Loading historical data...
Loading historical data...
Loading historical data...
Loading historical data...
Loading historical data...
Loading historical data...
Other satellites on launch #155 in the year 2022 (2022-11-16 UTC)

Documentation

Showing up to 5 results
|